Tracking 25620 objects as of 18-May-2022
HD Live streaming from Space Station
objects crossing your sky now

COSMOS 2251 DEB

Track COSMOS 2251 DEB now!
10-day predictions


NORAD ID: 34561
Int'l Code: 1993-036UX
Perigee: 678.6 km
Apogee: 734.8 km
Inclination: 74.0 °
Period: 98.8 minutes
Semi major axis: 7077 km
RCS: 0.028 m2 (small)
Launch date: June 16, 1993
Source: Commonwealth of Independent States (former USSR) (CIS)
Launch site: PLESETSK MISSILE AND SPACE COMPLEX (PKMTR)

Note: This is SATELLITE DEBRIS
aabbcc
Your satellite tracking list
Your tracking list is empty




NASA's NSSDC Master Catalog

Two Line Element Set (TLE):
1 34561U 93036UX  22137.93296418  .00007903  00000-0  17049-2 0  9999
2 34561  74.0328 318.1585 0039712  15.5954 344.6423 14.58029155697690
Source of the keplerian elements: AFSPC